www.pogodaiklimat.ru

Погода и климат >> Архив погоды >> Великобритания >> London


АРХИВ ПОГОДЫ в London

Время (UTC), дата Ветер
(напр.,м/с)
 
Видим.   Явления Облачность Т
(С)
Тd
(С)
f
(%)
Тe
(С)
Тes
(С)
Комфортность P
(гПа)
Po
(гПа)
Тmin
(С)
Tmax
(С)
R
(мм)
R24
(мм)
S
(см)
08 18.06 С 1 21 км н/о +24.4 +16.2 60 +28 +28 душно 1024.8 1021.9
07 18.06 СЗ 2 28 км н/о +21.6 +15.8 70 +25 +25 комфорт 1025.0 1022.1
09 18.06 ЮЗ 2 28 км н/о +26.0 +16.4 55 +29 +29 душно 1024.6 1021.6
10 18.06 З 2 40 км н/о +27.5 +15.3 47 +30 +30 жарко 1024.3 1021.4
11 18.06 СЗ 2 40 км н/о +27.7 +15.2 46 +30 +30 жарко 1024.0 1021.1
12 18.06 З 2 50 км н/о +27.4 +15.5 48 +30 +30 жарко 1023.6 1020.7
14 18.06 С 2 40 км н/о +30.0 +15.4 41 +33 +33 душно 1022.3 1019.4
13 18.06 З 2 29 км н/о +29.3 +15.4 43 +32 +32 душно 1022.9 1020.0
15 18.06 З 3 45 км н/о +30.9 +15.6 40 +34 +34 душно 1021.8 1018.9
16 18.06 ЮВ 2 27 км н/о +31.0 +14.2 36 +33 +33 душно 1021.3 1018.4
17 18.06 СЗ 2 35 км н/о +30.4 +14.5 38 +32 +32 жарко 1021.0 1018.2
18 18.06 СЗ 1 35 км н/о +30.6 +14.9 39 +33 +33 душно 1020.8 1017.9 +31.7
20 18.06 Ю 5 45 км н/о +26.2 +17.1 57 +30 +30 душно 1021.1 1018.2
19 18.06 Ю 5 40 км н/о +27.7 +17.4 53 +32 +32 очень
душно
1020.9 1018.0
21 18.06 Ю 4 45 км н/о +25.2 +16.7 59 +29 +29 душно 1021.5 1018.6
22 18.06 ЮЗ 3 40 км н/о +24.4 +16.4 61 +28 +28 душно 1021.7 1018.7
23 18.06 Ю 2 45 км н/о +23.0 +16.4 66 +28 +28 душно 1021.7 1018.7
00 19.06 Ю 1 45 км н/о +21.7 +16.1 70 +25 +25 комфорт 1021.6 1018.6
02 19.06 штиль 0 35 км н/о +20.5 +16.8 79 +23 +23 комфорт 1021.0 1018.0
01 19.06 ЮВ 1 40 км н/о +20.7 +16.6 77 +25 +25 комфорт 1021.3 1018.3
03 19.06 С 1 29 км н/о +20.1 +16.7 81 +24 +24 комфорт 1020.8 1017.9
04 19.06 СВ 1 20 км н/о +19.5 +16.3 82 +23 +23 комфорт 1020.8 1017.8
05 19.06 СВ 1 24 км н/о +20.4 +17.1 81 +25 +25 комфорт 1020.7 1017.7
06 19.06 СВ 2 25 км н/о +23.0 +17.1 69 +28 +28 душно 1020.5 1017.6 +19.0
08 19.06 В 2 22 км н/о +25.9 +16.3 55 +29 +29 душно 1020.1 1017.2
07 19.06 В 2 22 км н/о +24.7 +17.2 63 +29 +29 душно 1020.4 1017.5
09 19.06 СВ 2 24 км н/о +27.5 +15.1 47 +30 +30 жарко 1019.8 1016.9
10 19.06 СВ 2 28 км н/о +28.7 +14.8 43 +31 +31 жарко 1019.4 1016.5
11 19.06 В 4 45 км н/о +29.7 +14.0 38 +31 +31 жарко 1019.1 1016.3
12 19.06 ЮВ 3 35 км н/о +30.5 +12.2 33 +31 +31 жарко 1018.7 1015.9
14 19.06 В 3 30 км н/о +30.8 +13.3 34 +32 +32 жарко 1017.6 1014.8
13 19.06 С 2 40 км н/о +31.2 +14.6 37 +33 +33 жарко 1018.1 1015.3
15 19.06 СВ 3 29 км н/о +31.6 +13.9 34 +33 +33 жарко 1017.3 1014.4
16 19.06 СВ 2 35 км н/о +30.9 +15.0 38 +33 +33 душно 1016.9 1014.1
17 19.06 В 3 45 км н/о +30.1 +15.3 41 +33 +33 душно 1016.5 1013.6
18 19.06 В 5 28 км н/о +29.3 +16.5 46 +33 +33 душно 1016.6 1013.7 +32.0
20 19.06 ЮВ 6 35 км н/о +26.9 +16.6 53 +30 +30 душно 1017.3 1014.4
19 19.06 В 5 17 км н/о +28.2 +17.0 51 +32 +32 душно 1016.8 1014.0
21 19.06 ЮВ 4 28 км н/о +25.4 +16.5 58 +29 +29 душно 1017.8 1014.8
22 19.06 Ю 2 26 км н/о +24.4 +16.7 62 +28 +28 душно 1017.8 1014.9
23 19.06 ЮВ 2 35 км н/о +23.0 +16.2 66 +28 +28 душно 1017.8 1014.8
00 20.06 СЗ 1 25 км н/о +22.7 +17.0 70 +27 +27 душно 1017.7 1014.8
02 20.06 В 2 14 км н/о +20.2 +15.3 73 +23 +23 комфорт 1017.3 1014.4
01 20.06 В 2 18 км н/о +21.4 +16.3 73 +25 +25 комфорт 1017.5 1014.6
03 20.06 В 1 12 км н/о +19.9 +15.6 76 +23 +23 комфорт 1017.1 1014.2
04 20.06 СВ 1 13 км н/о +19.9 +15.7 77 +23 +23 комфорт 1017.3 1014.4
05 20.06 В 1 11 км н/о +19.9 +15.6 76 +23 +23 комфорт 1017.7 1014.7
06 20.06 В 2 11 км н/о +21.9 +16.0 69 +26 +26 душно 1017.7 1014.8 +19.3
08 20.06 В 3 20 км н/о +24.5 +15.6 58 +28 +28 душно 1018.0 1015.1
07 20.06 В 2 29 км н/о +23.0 +14.5 59 +27 +27 душно 1017.9 1014.9
09 20.06 ЮВ 5 35 км н/о +25.0 +14.2 51 +27 +27 жарко 1018.1 1015.2
10 20.06 В 4 29 км н/о +26.9 +14.7 47 +29 +29 жарко 1018.4 1015.5
11 20.06 В 4 30 км н/о +28.6 +15.2 44 +31 +31 жарко 1018.0 1015.1
12 20.06 В 4 30 км н/о +28.4 +13.0 39 +30 +30 жарко 1017.9 1015.0
14 20.06 В 3 45 км н/о +30.7 +12.6 33 +32 +32 жарко 1017.5 1014.6
13 20.06 СВ 3 45 км н/о +29.8 +13.8 38 +32 +32 душно 1017.7 1014.8
15 20.06 В 4 30 км н/о +31.1 +12.6 32 +32 +32 жарко 1017.1 1014.3
16 20.06 В 4 45 км н/о +30.6 +12.0 32 +31 +31 жарко 1016.8 1013.9
17 20.06 В 6 40 км н/о +29.5 +12.9 36 +31 +31 жарко 1016.7 1013.8
18 20.06 В 6 30 км н/о +27.4 +15.4 48 +30 +30 жарко 1016.8 1013.9 +31.4
20 20.06 В 6 35 км н/о +22.6 +14.9 62 +26 +26 жарко 1017.7 1014.8
19 20.06 В 6 30 км н/о +24.8 +15.3 56 +28 +28 жарко 1017.2 1014.3
21 20.06 В 5 30 км н/о +21.1 +14.9 68 +24 +24 комфорт 1017.9 1015.0
22 20.06 В 4 22 км н/о +19.9 +14.6 72 +22 +22 комфорт 1018.1 1015.2
23 20.06 В 2 13 км н/о +19.1 +15.8 81 +21 +21 комфорт 1018.4 1015.4
00 21.06 В 3 16 км н/о +18.3 +15.3 83 +19 +19 тепло 1018.2 1015.2
02 21.06 СВ 3 16 км н/о +17.1 +14.6 85 +17 +17 тепло 1017.4 1014.5
01 21.06 В 3 16 км н/о +17.7 +15.0 84 +18 +18 тепло 1017.7 1014.7
03 21.06 СВ 2 14 км н/о +16.8 +14.5 86 +17 +17 тепло 1017.0 1014.0
04 21.06 СВ 3 14 км н/о +16.6 +14.5 87 +16 +16 тепло 1016.7 1013.7
05 21.06 СВ 2 16 км н/о +17.1 +14.8 86 +17 +17 тепло 1016.7 1013.7
06 21.06 СВ 3 14 км н/о +18.0 +15.1 83 +18 +18 тепло 1016.6 1013.6 +16.5
08 21.06 В 3 18 км н/о +22.5 +16.7 70 +27 +27 душно 1016.0 1013.1
07 21.06 СВ 3 16 км н/о +20.2 +16.1 77 +23 +23 комфорт 1016.4 1013.5
09 21.06 В 4 18 км н/о +24.3 +17.0 64 +28 +28 душно 1015.6 1012.7
10 21.06 В 3 20 км н/о +26.8 +17.8 58 +31 +31 душно 1015.1 1012.2
11 21.06 ЮВ 3 27 км н/о +28.3 +18.2 54 +33 +33 очень
душно
1014.8 1011.9
12 21.06 В 3 17 км в посл. час дождь н/о +30.2 +18.4 49 +35 +35 очень
душно
1014.2 1011.3
14 21.06 Ю 4 29 км н/о +32.7 +16.5 38 +36 +36 очень
душно
1012.9 1010.0
13 21.06 Ю 4 28 км н/о +33.2 +17.6 40 +37 +37 очень
душно
1013.6 1010.8
15 21.06 Ю 4 28 км н/о +33.8 +15.6 34 +36 +36 очень
душно
1012.1 1009.3
16 21.06 Ю 5 27 км н/о +33.9 +16.2 35 +37 +37 очень
душно
1011.9 1009.1
17 21.06 Ю 5 30 км н/о +32.8 +15.6 36 +35 +35 душно 1011.4 1008.6
18 21.06 Ю 5 27 км н/о +31.8 +16.5 40 +35 +35 очень
душно
1011.5 1008.7
20 21.06 Ю 5 30 км н/о +27.8 +18.6 57 +33 +33 очень
душно
1011.5 1008.7
19 21.06 Ю 5 30 км н/о +29.2 +18.3 52 +34 +34 очень
душно
1011.5 1008.6
21 21.06 Ю 4 25 км н/о +26.2 +19.0 65 +31 +31 очень
душно
1011.7 1008.8
22 21.06 ЮЗ 5 22 км н/о +24.5 +18.7 70 +29 +29 душно 1011.6 1008.7
23 21.06 ЮЗ 5 20 км н/о +23.5 +18.2 72 +28 +28 душно 1011.7 1008.8
00 22.06 ЮЗ 4 16 км н/о +22.3 +17.8 76 +27 +27 душно 1011.5 1008.5
02 22.06 ЮЗ 4 13 км н/о +20.6 +17.0 80 +24 +24 комфорт 1011.1 1008.2
01 22.06 ЮЗ 4 13 км н/о +21.5 +17.6 78 +26 +26 душно 1011.5 1008.6
03 22.06 ЮЗ 3 18 км н/о +20.1 +16.3 79 +23 +23 комфорт 1010.8 1007.8
04 22.06 ЮЗ 4 15 км н/о +19.3 +15.7 80 +21 +21 комфорт 1010.5 1007.6
05 22.06 ЮЗ 5 10 км н/о +18.6 +15.6 83 +19 +19 тепло 1010.7 1007.8
06 22.06 З 6 7000 м дым н/о +18.5 +16.0 85 +19 +19 тепло 1011.1 1008.1 +18.3
08 22.06 ЮЗ 5 8000 м дым н/о +19.8 +16.5 81 +22 +22 комфорт 1011.3 1008.4
07 22.06 ЮЗ 6 7000 м дым н/о +19.1 +16.4 84 +20 +20 тепло 1011.4 1008.5
09 22.06 З 6 15 км н/о +20.3 +15.4 73 +23 +23 комфорт 1011.2 1008.3
10 22.06 З 8 25 км н/о +21.4 +14.5 65 +24 +24 комфорт 1011.9 1008.9
11 22.06 З 8 14 км н/о +22.9 +14.3 58 +26 +26 жарко 1011.3 1008.4
12 22.06 З 8 28 км н/о +23.1 +13.6 55 +26 +26 жарко 1011.4 1008.5
14 22.06 З 9 35 км н/о +22.7 +14.0 58 +26 +26 жарко 1012.0 1009.0
13 22.06 З 7
{13}
28 км н/о +22.1 +13.4 58 +25 +25 комфорт 1011.8 1008.9
15 22.06 З 7
{13}
29 км н/о +22.1 +14.0 60 +25 +25 комфорт 1012.1 1009.2
16 22.06 З 6 30 км н/о +22.6 +14.2 59 +26 +26 жарко 1012.5 1009.6
17 22.06 З 7 35 км н/о +22.2 +14.1 60 +25 +25 комфорт 1012.8 1009.8
18 22.06 З 6 35 км н/о +22.7 +13.6 56 +26 +26 жарко 1012.9 1009.9 +24.1
20 22.06 З 6 35 км н/о +20.3 +14.1 68 +22 +22 комфорт 1013.5 1010.5
19 22.06 З 7 35 км н/о +21.5 +13.8 62 +24 +24 комфорт 1013.1 1010.2
21 22.06 З 4 35 км н/о +19.4 +14.3 72 +21 +21 комфорт 1014.1 1011.2
22 22.06 З 5 35 км н/о +18.4 +14.1 76 +19 +19 тепло 1014.7 1011.8
23 22.06 З 5 35 км н/о +17.1 +13.6 80 +16 +16 тепло 1014.8 1011.8
00 23.06 З 5 45 км н/о +16.0 +12.5 80 +15 +15 тепло 1015.2 1012.2
02 23.06 З 6 35 км н/о +14.1 +11.3 83 +12 +12 по сезону 1015.4 1012.4
01 23.06 З 4 50 км н/о +14.7 +11.3 80 +13 +13 по сезону 1015.3 1012.3
03 23.06 З 4 45 км н/о +13.5 +11.4 87 +12 +12 по сезону 1015.6 1012.5
04 23.06 З 4 27 км н/о +13.2 +11.0 87 +11 +11 по сезону 1015.8 1012.8
05 23.06 ЮЗ 5 22 км н/о +13.5 +10.6 83 +12 +12 по сезону 1015.7 1012.7
06 23.06 З 5 29 км н/о +14.7 +10.5 76 +13 +13 по сезону 1015.8 1012.8 +13.1
08 23.06 З 9 30 км н/о +16.9 +9.9 63 +15 +15 по сезону 1016.7 1013.7
07 23.06 З 7 30 км н/о +16.2 +10.5 69 +15 +15 по сезону 1016.1 1013.1
09 23.06 З 7 40 км н/о +19.7 +10.9 57 +20 +20 тепло 1016.5 1013.6
10 23.06 З 8 30 км н/о +21.2 +10.9 52 +23 +23 комфорт 1016.6 1013.7
11 23.06 З 8 45 км н/о +22.0 +11.2 50 +24 +24 комфорт 1016.4 1013.5
12 23.06 З 9
{13}
30 км н/о +23.7 +11.3 46 +25 +25 комфорт 1016.3 1013.3
14 23.06 З 8 45 км н/о +23.5 +11.7 47 +25 +25 комфорт 1016.2 1013.3
13 23.06 З 8
{13}
30 км н/о +24.5 +12.2 46 +26 +26 жарко 1016.2 1013.2
15 23.06 З 9 26 км н/о +22.8 +11.5 49 +25 +25 комфорт 1016.1 1013.2
16 23.06 З 8 35 км н/о +22.1 +11.3 50 +24 +24 комфорт 1016.2 1013.2
17 23.06 З 7
{13}
45 км н/о +22.3 +12.3 53 +25 +25 комфорт 1016.1 1013.2
18 23.06 ЮЗ 8
{13}
50 км н/о +21.6 +12.7 57 +24 +24 комфорт 1016.0 1013.1 +24.9
20 23.06 ЮЗ 8 35 км н/о +20.2 +13.4 65 +22 +22 комфорт 1016.1 1013.2
19 23.06 ЮЗ 7 40 км н/о +20.7 +13.0 61 +23 +23 комфорт 1016.1 1013.2
21 23.06 ЮЗ 8 30 км н/о +19.3 +13.4 69 +20 +20 тепло 1016.1 1013.2
22 23.06 ЮЗ 7 30 км н/о +18.2 +13.4 74 +18 +18 тепло 1016.1 1013.1
23 23.06 ЮЗ 6 26 км н/о +17.6 +13.7 78 +17 +17 тепло 1015.8 1012.8
00 24.06 ЮЗ 6 23 км н/о +17.3 +13.4 78 +17 +17 тепло 1015.6 1012.6
02 24.06 ЮЗ 7 25 км н/о +17.3 +13.4 78 +16 +16 тепло 1015.0 1012.0
01 24.06 ЮЗ 6 18 км н/о +17.3 +13.3 77 +17 +17 тепло 1015.5 1012.5
03 24.06 ЮЗ 6 25 км н/о +17.2 +13.6 79 +16 +16 тепло 1014.6 1011.6
04 24.06 ЮЗ 6 40 км н/о +17.2 +13.7 80 +16 +16 тепло 1014.5 1011.5
05 24.06 ЮЗ 6 27 км н/о +17.2 +13.8 80 +16 +16 тепло 1014.6 1011.6
06 24.06 ЮЗ 6 30 км н/о +17.6 +14.0 79 +17 +17 тепло 1014.4 1011.4 +17.1
08 24.06 ЮЗ 5 5000 м слаб. ливневой дождь н/о +18.1 +14.8 81 +18 +18 тепло 1014.7 1011.7
07 24.06 ЮЗ 5 50 км н/о +18.1 +14.3 78 +18 +18 тепло 1014.6 1011.6
09 24.06 З 6 50 км в посл. час дождь н/о +20.5 +15.2 72 +23 +23 комфорт 1014.2 1011.2
10 24.06 ЮЗ 6 50 км н/о +20.9 +14.6 67 +24 +24 комфорт 1014.0 1011.1
11 24.06 ЮЗ 6 30 км н/о +22.1 +14.3 61 +25 +25 комфорт 1013.8 1010.9
12 24.06 ЮЗ 7 45 км н/о +21.9 +15.0 65 +25 +25 комфорт 1013.8 1010.9
14 24.06 ЮЗ 7 30 км слаб. ливневой дождь н/о +22.2 +15.9 67 +26 +26 душно 1013.0 1010.1
13 24.06 З 6 45 км н/о +21.5 +14.6 65 +25 +25 комфорт 1013.5 1010.6
15 24.06 З 8 40 км в посл. час дождь н/о +22.9 +14.6 59 +27 +27 душно 1012.7 1009.8
16 24.06 З 7 35 км н/о +22.3 +14.6 62 +26 +26 жарко 1012.5 1009.5
17 24.06 З 7 45 км н/о +22.5 +15.0 63 +26 +26 жарко 1012.0 1009.1
18 24.06 ЮЗ 6 24 км в посл. час дождь н/о +20.2 +16.4 79 +23 +23 комфорт 1012.0 1009.1 +24.1
20 24.06 ЮЗ 7 35 км слаб. морось с дождем н/о +18.7 +16.4 86 +19 +19 тепло 1012.1 1009.1
19 24.06 ЮЗ 6 45 км в посл. час дождь н/о +19.8 +16.3 80 +22 +22 комфорт 1011.9 1008.9
21 24.06 ЮЗ 6 40 км в посл. час дождь н/о +18.2 +15.5 84 +18 +18 тепло 1012.3 1009.3
22 24.06 З 6 50 км н/о +17.4 +13.7 79 +17 +17 тепло 1012.5 1009.6
23 24.06 З 6 50 км н/о +16.3 +12.8 80 +15 +15 тепло 1012.7 1009.7
00 25.06 З 6 50 км н/о +15.8 +12.2 79 +14 +14 по сезону 1012.6 1009.6
02 25.06 З 5 50 км н/о +15.4 +12.2 81 +14 +14 тепло 1012.5 1009.5
01 25.06 З 5 50 км н/о +15.7 +12.0 79 +14 +14 тепло 1012.6 1009.6
03 25.06 З 5 35 км н/о +14.8 +11.8 82 +13 +13 по сезону 1012.4 1009.4
04 25.06 ЮЗ 5 40 км н/о +15.0 +12.2 83 +14 +14 тепло 1012.2 1009.2
05 25.06 З 6 45 км н/о +15.7 +12.1 79 +14 +14 тепло 1012.4 1009.4
06 25.06 З 6 45 км н/о +15.9 +12.0 78 +15 +15 тепло 1012.6 1009.6 +14.8
07 25.06 ЮЗ 6 28 км н/о +16.7 +12.0 74 +16 +16 тепло 1012.7 1009.7

 

Местоположение метеостанции London (Великобритания): широта 51.48 долгота -0.45 высота над уровнем моря 25 м.

В архиве по умолчанию представлена погода в London за последнюю неделю. Архивные данные за месяц целиком и за предыдущие месяцы, начиная с января 2011 года, Вы можете получить, выбрав интересующий диапазон дат из раскрывающегося списка и нажав кнопку "Ввод!".

Внимание! Время в таблицах - всемирное. Для получения местного времени необходимо прибавить поправку, которая в London равна 0 ч.

Смотрите также архив погоды в соседних городах и на ближайших метеорологических станциях:

Погода в Northolt (Великобритания) (8 км)
Погода в London, St James Park (Великобритания) (23 км)
Погода в Charlwood (Великобритания) (28 км)
Погода в Farnborough (Великобритания) (31 км)
Погода в Kenley Airfield (Великобритания) (33 км)
Погода в High Wycombe Hqstc (Великобритания) (33 км)
Погода в Odiham (Великобритания) (44 км)
Погода в Benson (Великобритания) (46 км)
Погода в Gravesend-Broadness (Великобритания) (52 км)
Погода в Rothamsted (Великобритания) (66 км)

Пояснения к столбцам:

Ветер - указаны скорость ветра в м/с - средняя за 10 мин, порывы в срок и между сроками (в фигурных скобках) и направление, откуда дует ветер: С - северный, СВ - северо-восточный, В - восточный, ЮВ - юго-восточный, Ю - южный, ЮЗ - юго-западный, З - западный, СЗ - северо-западный.
Видимость - горизонтальная дальность видимости в метрах или километрах. При видимости от 1 до 10 км при отсутствии осадков обычно наблюдается дымка, при ухудшении видимости до 1 км и менее - туман. В сухую погоду видимость может ухудшаться дымом, пылью или мглою.
Явления - указаны атмосферные явления, наблюдавшиеся в срок или в последний час перед сроком; фигурными скобками обозначены явления, наблюдавшиеся между сроками (за 1-3 часа до срока); квадратными скобками обозначены град или гололедные отложения с указанием их диаметра в мм.
Облачность - указаны через наклонную черту общая и нижняя облачность в баллах и высота нижней границы облаков в метрах; квадратными скобками обозначены формы облаков: Ci - перистые, Cs - перисто-слоистые, Cc - перисто-кучевые, Ac - высококучевые, As - высокослоистые, Sc - слоисто-кучевые, Ns - слоисто-дождевые, Cu - кучевые, Cb - кучево-дождевые. Подробнее классификацию облаков см. в Атласе облаков (PDF).
T - Температура воздуха - температура, измеренная на высоте 2 м над землей.
Td - Температура точки росы - температура, при понижении до которой содержащийся в воздухе водяной пар достигнет насыщения.
f - Относительная влажность воздуха - влажноcть воздуха, измеренная на высоте 2 м над землей.
Te - Эффективная температура - температура, которую ощущает одетый по сезону человек в тени. Характеристика душности погоды. При расчете учитывается влияние влажности воздуха и скорости ветра на теплоощущения человека.
Tes - Эффективная температура на солнце - температура, которую ощущает человек, с поправкой на солнечный нагрев. Характеристика знойности погоды. Зависит от высоты солнца над горизонтом, облачности и скорости ветра. Ночью, в пасмурную погоду, а также при ветре 12 м/с и более поправка равна нулю.
P - Атмосферное давление - приведенное к уровню моря атмосферное давление.
Po - Атмосферное давление - измеренное на уровне метеостанции атмосферное давление.
Tmin - Минимальная температура - минимум температуры воздуха на высоте 2 м над землей.
Tmax - Максимальная температура - максимум температуры воздуха на высоте 2 м над землей.
R - Количество осадков - Количество выпавших осадков за период времени, мм. При наведении курсора мыши на число - период времени, за который выпало указанное количество осадков.
R24 - Количество осадков - Количество выпавших осадков за 24 часа, мм.
S - Снежный покров - Высота снежного покрова, см. При наведении курсора мыши на число - состояние снежного покрова и степень покрытия местности в баллах.